Brownsville, TX

3:42 AM CDT on September 25, 2017 (GMT -0500)
Brownsville-South Padre I International

Weather History for KBRO - May, 2013

Change the Weather History Date:

Wednesday, May 15, 2013

  Actual Average Record
Temperature  
Mean Temperature 78 °F 80 °F  
Max Temperature 82 °F 88 °F 95 °F (1893)
Min Temperature 74 °F 72 °F 55 °F (2014)
Degree Days  
Heating Degree Days 0 0  
Month to date heating degree days 1 0  
Since 1 July heating degree days 329 554  
Cooling Degree Days 13 15  
Month to date cooling degree days 158 210  
Year to date cooling degree days 817 827  
Growing Degree Days 28 (Base 50)    
Moisture  
Dew Point 72 °F    
Average Humidity 84    
Maximum Humidity 94    
Minimum Humidity 74    
Precipitation  
Precipitation 0.05 in 0.09 in 2.17 in (2006)
Month to date precipitation 0.42 1.19  
Year to date precipitation 5.28 6.31  
Sea Level Pressure  
Sea Level Pressure 30.01 in    
Wind  
Wind Speed 14 mph (SE)    
Max Wind Speed 24 mph    
Max Gust Speed 29 mph    
Visibility 10 miles    
Events Rain    
T = Trace of Precipitation, MM = Missing Value Source: NWS Daily Summary

Daily Weather History Graph

Daily Weather History Graph

Search for Another Location

Airport or City:

Trip Planner

Search our weather history database for the weather conditions in past years. The results will help you decide how hot, cold, wet, or windy it might be!

Date:

Astronomy

May. 15, 2013 Rise Set
Actual Time 6:43 AM CDT 8:08 PM CDT
Civil Twilight 6:18 AM CDT 8:33 PM CDT
Nautical Twilight 5:48 AM CDT 9:03 PM CDT
Astronomical Twilight 5:18 AM CDT 9:34 PM CDT
Moon 11:15 AM CDT (5/15) No Moon Set
Length of Visible Light 14h 15m
Length of Day
13h 25m
Waxing Crescent, 27% of the Moon is Illuminated
May 15
Waxing Crescent
May 17
First Quarter
May 24
Full
May 31
Last Quarter
Jun 8
New

Hourly Weather History & Observations

Time (CDT) Temp. Heat Index Dew Point Humidity Pressure Visibility Wind Dir Wind Speed Gust Speed Precip Events Conditions
12:06 AM 75.2 °F - 71.6 °F 89% 30.13 in 10.0 mi SE 12.7 mph - N/A   Overcast
12:53 AM 75.0 °F - 72.0 °F 90% 30.11 in 10.0 mi SE 9.2 mph - 0.00 in   Overcast
1:19 AM 75.2 °F - 71.6 °F 89% 30.10 in 10.0 mi SE 11.5 mph - N/A   Overcast
1:53 AM 75.0 °F - 72.0 °F 90% 30.07 in 10.0 mi SE 13.8 mph - N/A   Overcast
2:53 AM 75.0 °F - 72.0 °F 90% 30.05 in 10.0 mi SE 16.1 mph 23.0 mph N/A   Mostly Cloudy
3:17 AM 75.2 °F - 71.6 °F 89% 30.05 in 10.0 mi SE 13.8 mph - N/A   Mostly Cloudy
3:53 AM 75.0 °F - 72.0 °F 90% 30.04 in 10.0 mi SSE 11.5 mph - N/A   Overcast
4:23 AM 75.2 °F - 73.4 °F 94% 30.04 in 10.0 mi SSE 12.7 mph - N/A   Overcast
4:53 AM 75.0 °F - 73.0 °F 94% 30.04 in 10.0 mi South 10.4 mph - N/A   Overcast
5:19 AM 75.2 °F - 73.4 °F 94% 30.04 in 10.0 mi SSE 10.4 mph - N/A   Overcast
5:53 AM 75.0 °F - 73.0 °F 94% 30.03 in 10.0 mi SSE 9.2 mph - N/A   Overcast
6:53 AM 75.0 °F - 73.0 °F 94% 30.03 in 10.0 mi SE 8.1 mph - 0.01 in Rain Light Rain
7:14 AM 75.2 °F - 73.4 °F 94% 30.04 in 9.0 mi ESE 5.8 mph - 0.01 in Rain Light Rain
7:53 AM 75.0 °F - 73.0 °F 94% 30.06 in 8.0 mi ESE 6.9 mph - 0.04 in Rain Light Rain
8:53 AM 75.9 °F - 73.9 °F 94% 30.06 in 8.0 mi SE 9.2 mph - 0.00 in   Overcast
9:19 AM 75.2 °F - 73.4 °F 94% 30.06 in 9.0 mi SE 10.4 mph 19.6 mph 0.00 in   Overcast
9:53 AM 75.9 °F - 73.9 °F 94% 30.07 in 9.0 mi SSE 12.7 mph - 0.00 in Rain Light Rain
10:16 AM 77.0 °F - 73.4 °F 89% 30.07 in 10.0 mi SE 15.0 mph - 0.00 in   Overcast
10:28 AM 75.2 °F - 73.4 °F 94% 30.06 in 10.0 mi SE 11.5 mph - 0.00 in   Overcast
10:35 AM 75.2 °F - 73.4 °F 94% 30.06 in 10.0 mi SE 13.8 mph - 0.00 in Rain Light Rain
10:53 AM 75.9 °F - 73.9 °F 94% 30.06 in 10.0 mi SE 9.2 mph - 0.00 in Rain Light Rain
11:53 AM 77.0 °F - 73.9 °F 90% 30.05 in 10.0 mi SSE 15.0 mph - 0.00 in   Overcast
12:53 PM 78.1 °F - 73.0 °F 84% 30.04 in 10.0 mi SE 16.1 mph - N/A   Overcast
1:21 PM 78.8 °F - 73.4 °F 83% 30.03 in 10.0 mi SSE 19.6 mph - N/A   Overcast
1:53 PM 80.1 °F 84.2 °F 73.0 °F 79% 30.01 in 10.0 mi SE 17.3 mph 26.5 mph N/A   Overcast
2:53 PM 79.0 °F - 72.0 °F 79% 29.98 in 10.0 mi SSE 18.4 mph - N/A   Overcast
3:53 PM 80.1 °F 83.8 °F 72.0 °F 76% 29.96 in 10.0 mi SSE 17.3 mph - N/A   Overcast
4:53 PM 81.0 °F 84.9 °F 71.1 °F 72% 29.94 in 10.0 mi SE 19.6 mph - N/A   Overcast
5:53 PM 80.1 °F 83.6 °F 71.1 °F 74% 29.92 in 10.0 mi SSE 19.6 mph 26.5 mph N/A   Mostly Cloudy
6:31 PM 78.8 °F - 71.6 °F 78% 29.92 in 10.0 mi SSE 18.4 mph - N/A   Scattered Clouds
6:39 PM 78.8 °F - 71.6 °F 78% 29.92 in 10.0 mi SE 20.7 mph - N/A   Mostly Cloudy
6:53 PM 79.0 °F - 71.1 °F 77% 29.91 in 10.0 mi SSE 17.3 mph 24.2 mph N/A   Mostly Cloudy
7:45 PM 77.0 °F - 71.6 °F 83% 29.92 in 10.0 mi SSE 15.0 mph - N/A   Scattered Clouds
7:53 PM 75.9 °F - 71.1 °F 85% 29.91 in 10.0 mi SSE 13.8 mph 21.9 mph N/A   Scattered Clouds
8:53 PM 75.0 °F - 71.1 °F 87% 29.92 in 10.0 mi SSE 15.0 mph - N/A   Clear
9:53 PM 75.0 °F - 72.0 °F 90% 29.92 in 10.0 mi SSE 15.0 mph - N/A   Clear
10:11 PM 75.2 °F - 71.6 °F 89% 29.93 in 10.0 mi SSE 12.7 mph - N/A   Mostly Cloudy
10:53 PM 73.9 °F - 72.0 °F 93% 29.93 in 10.0 mi SSE 15.0 mph - N/A   Overcast
11:20 PM 73.4 °F - 71.6 °F 94% 29.94 in 10.0 mi SSE 13.8 mph - N/A   Overcast
11:53 PM 73.9 °F - 72.0 °F 93% 29.94 in 10.0 mi SSE 15.0 mph - N/A   Overcast